EN

Hourly Weather Dzikowice

Today, 23 October, Friday

Time Temperature Precipitation Wind Pressure Humidity
00:00 +14°C° 0 mm 4 mps 748 mmHg 75%
01:00 +14°C° 0 mm 4 mps 748 mmHg 75%
02:00 +14°C° 0 mm 4 mps 748 mmHg 77%
03:00 +14°C° 0 mm 3 mps 747 mmHg 79%
04:00 +14°C° 0 mm 3 mps 747 mmHg 81%
05:00 +14°C° 0 mm 3 mps 747 mmHg 80%
06:00 +13°C° 0 mm 3 mps 747 mmHg 80%
07:00 +13°C° 0 mm 3 mps 747 mmHg 79%
08:00 +14°C° 0 mm 4 mps 747 mmHg 76%
09:00 +15°C° 0 mm 4 mps 747 mmHg 74%
10:00 +17°C° 0 mm 4 mps 747 mmHg 71%
11:00 +17°C° 0 mm 3 mps 747 mmHg 72%
12:00 +17°C° 0 mm 3 mps 747 mmHg 73%
13:00 +17°C° 0 mm 3 mps 746 mmHg 75%
14:00 +16°C° 0 mm 2 mps 746 mmHg 77%
15:00 +16°C° 0 mm 2 mps 746 mmHg 80%
16:00 +15°C° 0 mm 2 mps 746 mmHg 83%
17:00 +15°C° 0.7 mm 2 mps 746 mmHg 86%
18:00 +15°C° 0.7 mm 2 mps 745 mmHg 89%
19:00 +14°C° 0.7 mm 2 mps 745 mmHg 93%
20:00 +14°C° 0.8 mm 2 mps 745 mmHg 94%
21:00 +14°C° 0.8 mm 2 mps 745 mmHg 94%
22:00 +14°C° 0.8 mm 2 mps 745 mmHg 95%
23:00 +14°C° 0.2 mm 2 mps 745 mmHg 95%

Tomorrow, 24 October, Saturday

Time Temperature Precipitation Wind Pressure Humidity
00:00 +14°C° 0.2 mm 2 mps 745 mmHg 95%
01:00 +14°C° 0.2 mm 2 mps 745 mmHg 95%
02:00 +13°C° 0.3 mm 3 mps 745 mmHg 95%
03:00 +13°C° 0.3 mm 3 mps 745 mmHg 95%
04:00 +13°C° 0.3 mm 3 mps 745 mmHg 95%
05:00 +13°C° 0.1 mm 4 mps 746 mmHg 94%
06:00 +12°C° 0.1 mm 4 mps 746 mmHg 94%
07:00 +12°C° 0.1 mm 4 mps 747 mmHg 93%
08:00 +13°C° 0 mm 4 mps 747 mmHg 88%
09:00 +13°C° 0 mm 5 mps 747 mmHg 83%
10:00 +14°C° 0 mm 5 mps 748 mmHg 78%
11:00 +14°C° 0 mm 5 mps 748 mmHg 75%
12:00 +15°C° 0 mm 5 mps 748 mmHg 71%
13:00 +15°C° 0 mm 5 mps 749 mmHg 68%
14:00 +15°C° 0 mm 4 mps 749 mmHg 70%
15:00 +14°C° 0 mm 3 mps 749 mmHg 73%
16:00 +15°C° 0 mm 2 mps 749 mmHg 75%
17:00 +14°C° 0 mm 2 mps 749 mmHg 79%
18:00 +13°C° 0 mm 2 mps 749 mmHg 83%
19:00 +12°C° 0 mm 2 mps 750 mmHg 86%
20:00 +12°C° 0 mm 2 mps 750 mmHg 88%
21:00 +12°C° 0 mm 2 mps 750 mmHg 89%
22:00 +10°C° 0 mm 2 mps 750 mmHg 90%
23:00 +10°C° 0 mm 2 mps 750 mmHg 89%

Day after tomorrow, 25 October, Sunday

Time Temperature Precipitation Wind Pressure Humidity
00:00 +10°C° 0 mm 2 mps 750 mmHg 88%
01:00 +10°C° 0 mm 2 mps 750 mmHg 87%
02:00 +10°C° 0 mm 2 mps 749 mmHg 87%
03:00 +10°C° 0 mm 2 mps 749 mmHg 88%
04:00 +9°C° 0 mm 2 mps 749 mmHg 89%
05:00 +9°C° 0 mm 2 mps 749 mmHg 89%
06:00 +9°C° 0 mm 2 mps 749 mmHg 89%
07:00 +9°C° 0 mm 2 mps 749 mmHg 90%
08:00 +12°C° 0 mm 2 mps 749 mmHg 83%
09:00 +13°C° 0 mm 2 mps 749 mmHg 76%
10:00 +15°C° 0 mm 2 mps 749 mmHg 69%
11:00 +16°C° 0 mm 2 mps 749 mmHg 65%
12:00 +17°C° 0 mm 2 mps 748 mmHg 61%
13:00 +18°C° 0 mm 2 mps 748 mmHg 56%
14:00 +17°C° 0 mm 2 mps 747 mmHg 60%
15:00 +17°C° 0 mm 2 mps 747 mmHg 64%
16:00 +16°C° 0 mm 2 mps 746 mmHg 68%
17:00 +15°C° 0 mm 2 mps 746 mmHg 72%
18:00 +14°C° 0 mm 2 mps 746 mmHg 76%
19:00 +12°C° 0 mm 2 mps 746 mmHg 80%
20:00 +12°C° 0 mm 2 mps 746 mmHg 82%
21:00 +12°C° 0 mm 2 mps 746 mmHg 83%
22:00 +10°C° 0 mm 2 mps 746 mmHg 85%
23:00 +10°C° 0 mm 2 mps 746 mmHg 86%

, 26 October, Monday

Time Temperature Precipitation Wind Pressure Humidity
00:00 +10°C° 0 mm 2 mps 745 mmHg 87%
01:00 +9°C° 0 mm 2 mps 745 mmHg 88%
02:00 +9°C° 0 mm 2 mps 745 mmHg 88%
03:00 +9°C° 0 mm 2 mps 744 mmHg 89%
04:00 +9°C° 0 mm 3 mps 744 mmHg 89%
05:00 +9°C° 0 mm 3 mps 744 mmHg 89%
06:00 +9°C° 0 mm 3 mps 743 mmHg 89%
07:00 +9°C° 0 mm 3 mps 743 mmHg 89%
08:00 +11°C° 0 mm 3 mps 743 mmHg 83%
09:00 +12°C° 0 mm 3 mps 743 mmHg 76%
10:00 +14°C° 0 mm 4 mps 742 mmHg 69%
11:00 +15°C° 0 mm 4 mps 742 mmHg 68%
12:00 +15°C° 0 mm 4 mps 742 mmHg 67%
13:00 +17°C° 0 mm 4 mps 741 mmHg 66%
14:00 +15°C° 0 mm 4 mps 741 mmHg 67%
15:00 +16°C° 0 mm 3 mps 741 mmHg 69%
16:00 +14°C° 0 mm 3 mps 740 mmHg 70%
17:00 +14°C° 0 mm 3 mps 740 mmHg 72%
18:00 +14°C° 0 mm 3 mps 740 mmHg 74%
19:00 +13°C° 0 mm 3 mps 740 mmHg 76%
20:00 +13°C° 0 mm 3 mps 740 mmHg 78%
21:00 +13°C° 0 mm 3 mps 740 mmHg 80%
22:00 +12°C° 0 mm 3 mps 740 mmHg 82%
23:00 +12°C° 0 mm 3 mps 740 mmHg 85%

26 October, Monday

Time Temperature Precipitation Wind Pressure Humidity
00:00 +10°C° 0 mm 2 mps 745 mmHg 87%
01:00 +9°C° 0 mm 2 mps 745 mmHg 88%
02:00 +9°C° 0 mm 2 mps 745 mmHg 88%
03:00 +9°C° 0 mm 2 mps 744 mmHg 89%
04:00 +9°C° 0 mm 3 mps 744 mmHg 89%
05:00 +9°C° 0 mm 3 mps 744 mmHg 89%
06:00 +9°C° 0 mm 3 mps 743 mmHg 89%
07:00 +9°C° 0 mm 3 mps 743 mmHg 89%
08:00 +11°C° 0 mm 3 mps 743 mmHg 83%
09:00 +12°C° 0 mm 3 mps 743 mmHg 76%
10:00 +14°C° 0 mm 4 mps 742 mmHg 69%
11:00 +15°C° 0 mm 4 mps 742 mmHg 68%
12:00 +15°C° 0 mm 4 mps 742 mmHg 67%
13:00 +17°C° 0 mm 4 mps 741 mmHg 66%
14:00 +15°C° 0 mm 4 mps 741 mmHg 67%
15:00 +16°C° 0 mm 3 mps 741 mmHg 69%
16:00 +14°C° 0 mm 3 mps 740 mmHg 70%
17:00 +14°C° 0 mm 3 mps 740 mmHg 72%
18:00 +14°C° 0 mm 3 mps 740 mmHg 74%
19:00 +13°C° 0 mm 3 mps 740 mmHg 76%
20:00 +13°C° 0 mm 3 mps 740 mmHg 78%
21:00 +13°C° 0 mm 3 mps 740 mmHg 80%
22:00 +12°C° 0 mm 3 mps 740 mmHg 82%
23:00 +12°C° 0 mm 3 mps 740 mmHg 85%

27 October, Tuesday

Time Temperature Precipitation Wind Pressure Humidity
00:00 +12°C° 0 mm 2 mps 740 mmHg 87%
01:00 +12°C° 0 mm 2 mps 740 mmHg 89%
02:00 +12°C° 0 mm 2 mps 740 mmHg 88%
03:00 +10°C° 0 mm 2 mps 741 mmHg 88%
04:00 +10°C° 0 mm 2 mps 741 mmHg 88%
05:00 +10°C° 0 mm 2 mps 741 mmHg 89%
06:00 +9°C° 0 mm 2 mps 742 mmHg 91%
07:00 +9°C° 0 mm 2 mps 742 mmHg 92%
08:00 +10°C° 0 mm 2 mps 742 mmHg 87%
09:00 +12°C° 0 mm 2 mps 743 mmHg 82%
10:00 +13°C° 0 mm 2 mps 743 mmHg 77%
11:00 +14°C° 0 mm 2 mps 743 mmHg 73%
12:00 +15°C° 0 mm 2 mps 744 mmHg 69%
13:00 +15°C° 0 mm 2 mps 744 mmHg 65%
14:00 +15°C° 0 mm 2 mps 744 mmHg 69%
15:00 +14°C° 0 mm 2 mps 744 mmHg 73%
16:00 +13°C° 0 mm 2 mps 744 mmHg 77%
17:00 +13°C° 0 mm 1 mps 745 mmHg 80%
18:00 +13°C° 0 mm 1 mps 745 mmHg 82%
19:00 +12°C° 0 mm 1 mps 745 mmHg 84%
20:00 +12°C° 0.1 mm 1 mps 746 mmHg 85%
21:00 +12°C° 0.1 mm 1 mps 746 mmHg 87%
22:00 +11°C° 0.1 mm 0 mps 746 mmHg 88%
23:00 +12°C° 0.1 mm 1 mps 746 mmHg 90%

28 October, Wednesday

Time Temperature Precipitation Wind Pressure Humidity
00:00 +11°C° 0.1 mm 1 mps 746 mmHg 91%
01:00 +11°C° 0.1 mm 1 mps 746 mmHg 93%
02:00 +11°C° 0 mm 1 mps 747 mmHg 93%
03:00 +10°C° 0 mm 0 mps 747 mmHg 93%
04:00 +10°C° 0 mm 0 mps 747 mmHg 94%
05:00 +9°C° 0 mm 0 mps 747 mmHg 94%
06:00 +9°C° 0 mm 0 mps 747 mmHg 95%
07:00 +9°C° 0 mm 0 mps 748 mmHg 95%
08:00 +10°C° 0 mm 0 mps 748 mmHg 92%
09:00 +11°C° 0 mm 0 mps 748 mmHg 89%
10:00 +12°C° 0 mm 0 mps 748 mmHg 85%
11:00 +12°C° 0 mm 0 mps 748 mmHg 85%
12:00 +13°C° 0 mm 1 mps 748 mmHg 85%
13:00 +13°C° 0 mm 1 mps 748 mmHg 85%
14:00 +13°C° 0 mm 1 mps 748 mmHg 86%
15:00 +13°C° 0 mm 1 mps 749 mmHg 88%
16:00 +13°C° 0 mm 1 mps 749 mmHg 89%
17:00 +12°C° 0 mm 1 mps 749 mmHg 90%
18:00 +12°C° 0 mm 1 mps 749 mmHg 92%
19:00 +11°C° 0 mm 1 mps 750 mmHg 93%
20:00 +11°C° 0 mm 1 mps 750 mmHg 93%
21:00 +10°C° 0 mm 1 mps 750 mmHg 92%
22:00 +10°C° 0 mm 1 mps 750 mmHg 92%
23:00 +9°C° 0 mm 2 mps 750 mmHg 91%
Show more